Regional Weather Roundup
Issued by NWS

Home | Current Version | Previous Version | Graphics & Text | Print | Product List | Glossary On
Versions: 1 2 3 4 5 6 7 8 9 10 11 12 13 14 15 16 17 18 19 20 21 22 23 24 25 26 27 28 29 30 31 32 33 34 35 36 37 38 39 40 41 42 43 44 45 46 47 48 49 50
000
ASUS43 KMPX 241201
RWRMN
WEATHER ROUNDUP FOR MINNESOTA
NATIONAL WEATHER SERVICE TWIN CITIES/CHANHASSEN MN
700 AM CDT FRI OCT 24 2014


NOTE: "FAIR" INDICATES FEW OR NO CLOUDS BELOW 12,000 FEET WITH NO
SIGNIFICANT WEATHER AND/OR OBSTRUCTIONS TO VISIBILITY. N/A MEANS
CURRENT SKY AND/OR WEATHER CONDITIONS ARE NOT AVAILABLE.

MNZ060>063-068>070-241300-
   Twin Cities Metro

CITY           SKY/WX    TMP DP  RH WIND       PRES   REMARKS
TWIN CITIES    CLOUDY    47  44  90 E8        29.90F
6HR MIN TEMP:  46; 6HR MAX TEMP:  48;

ST PAUL        CLOUDY    47  46  97 SE6       29.92F
CRYSTAL        CLOUDY    49  45  86 SE5       29.88F
BLAINE         CLOUDY    48  48 100 SE7       29.89F
LAKEVILLE      MOCLDY    39  39 100 E3        29.90F FOG
EDEN PRAIRIE   CLOUDY    51  45  79 SE8       29.87F
6HR MIN TEMP:  47; 6HR MAX TEMP:  52;

SOUTH ST PAUL  CLOUDY    47  46  96 SE3       29.91F
LAKE ELMO      FAIR      45  45 100 CALM      29.92F
$$
MNZ001>005-007-008-013>017-022>024-027-028-241300-
   Northwest Minnesota

CITY           SKY/WX    TMP DP  RH WIND       PRES   REMARKS
BEMIDJI        MOCLDY    50  42  74 S7        29.77F
HALLOCK        MOCLDY    45  37  76 S7        29.71S
ROSEAU         CLOUDY    46  41  81 S7        29.72S
WARROAD        CLOUDY    48  43  81 SW8       29.73S
THIEF RVR FALL PTCLDY    46  39  76 S10       29.75F
CROOKSTON      PTCLDY    43  39  87 S8        29.77S
FOSSTON        PTCLDY    45  39  81 CALM      29.78F
DETROIT LAKES  FAIR      45  43  93 S7        29.81F
MOORHEAD       MOCLDY    46  45  93 S10       29.80S
PARK RAPIDS    MOCLDY    44  40  85 CALM      29.81F
MAHNOMEN       FAIR      47  42  81 SW7       29.78F
$$
MNZ006-009>011-018-025>026-241300-
   North Central Minnesota

CITY           SKY/WX    TMP DP  RH WIND       PRES   REMARKS
BAUDETTE       CLOUDY    49  41  74 SW6       29.73S
FLAG ISLAND    CLOUDY    50  45  81 SE5       29.70R
INTL FALLS     CLOUDY    52  42  69 SW3       29.74F
6HR MIN TEMP:  49; 6HR MAX TEMP:  53;

WASKISH        CLOUDY    55  45  67 CALM      29.75S
BIG FORK       CLOUDY    54  43  66 S10       29.79F
LONGVILLE      CLOUDY    41  39  93 CALM      29.82F
GRAND RAPIDS   CLOUDY    48  41  76 S12       29.83S
CRANE LAKE     CLOUDY    52  43  71 S7        29.79F
ORR            CLOUDY    50  41  71 S7        29.77F
COOK           CLOUDY    52  43  71 S5        29.81F
WALKER         FAIR      49  41  76 SW6       29.81S
$$
MNZ012-019>021-037-241300-
   Northeast Minnesota

CITY           SKY/WX    TMP DP  RH WIND       PRES   REMARKS
DULUTH         CLOUDY    48  45  89 S8        29.87F FOG
6HR MIN TEMP:  47; 6HR MAX TEMP:  49;

ELY            CLOUDY    48  45  87 S6        29.83F
HIBBING        CLOUDY    40  38  93 SE3       29.84F FOG
EVELETH        CLOUDY    39  37  93 CALM      29.85F FOG
DULUTH HARBOR  CLOUDY    46  45  93 CALM      29.89F FOG
TWO HARBORS      N/A     48  37  66 CALM      29.86F HAZE
SILVER BAY     CLOUDY    48  46  93 CALM      29.87S FOG
GRAND MARAIS     N/A     47  46  97 CALM      29.89F
G MARAIS ARPRT FOG       45  41  87 S7        29.88F VSB 1/4
$$
MNZ029>031-032-039>041-046>048-054>057-064-241300-
   West Central Minnesota

CITY           SKY/WX    TMP DP  RH WIND       PRES   REMARKS
FERGUS FALLS   MOCLDY    45  39  81 SE6       29.83S
WHEATON        CLOUDY    37  36  93 CALM      29.85R
MORRIS         CLOUDY    43  41  93 SE7       29.82S
ALEXANDRIA     MOCLDY    46  42  86 SE3       29.84F
ELBOW LAKE     FAIR      45  42  90 SE7       29.82F
WADENA         MOCLDY    43  39  87 CALM      29.82S
GLENWOOD       CLOUDY    43  41  93 S3        29.84S
APPLETON       CLOUDY    43  41  93 E5        29.82S
BENSON         CLOUDY    46  43  87 S5        29.83S
ORTONVILLE     CLOUDY    45  41  87 CALM      29.83R
MADISON        MOCLDY    45  43  93 CALM      29.82S
WILLMAR        FAIR      45  39  81 SE5       29.85S
$$
MNZ033>034-036-042>043-049>051-058-059-241300-
   Central Minnesota

CITY           SKY/WX    TMP DP  RH WIND       PRES   REMARKS
ST CLOUD       CLOUDY    48  41  76 E5        29.86F
6HR MIN TEMP:  45; 6HR MAX TEMP:  51;

SAUK CENTRE    FAIR      43  40  89 CALM      29.85R
PAYNESVILLE    MOCLDY    45  41  85 CALM      29.85R
AITKIN         CLOUDY    52  45  76 S7        29.83F
PINE RIVER     CLOUDY    45  39  81 SE3       29.87S
BRAINERD       CLOUDY    47  41  80 S6        29.85S
STAPLES        MOCLDY    43  39  87 CALM      29.84R
LONG PRAIRIE   FAIR      43  41  93 S3        29.85R
LITTLE FALLS   MOCLDY    45  37  76 SE5       29.85F
LITCHFIELD     MOCLDY    48  45  87 S3        29.85F
BUFFALO        CLOUDY    49  42  77 SE3       29.87F
MAPLE LAKE     CLOUDY    48  44  84 SE5       29.86F
$$
MNZ037-044-045-052-053-241300-
   East Central Minnesota

CITY           SKY/WX    TMP DP  RH WIND       PRES   REMARKS
PRINCETON      CLOUDY    46  45  93 E3        29.88F
MORA           FOG       39  37  93 CALM      29.90S VSB 1/2
CAMBRIDGE      CLOUDY    48  41  76 SE5       29.87F
RUSH CITY      MOCLDY    46  46  97 S3        29.90S
MOOSE LAKE     CLOUDY    46  45  93 S5        29.87S FOG
HINCKLEY       FOG       45  45 100 CALM      29.90S VSB 1/2
CLOQUET        CLOUDY    46  45  93 S5        29.88S FOG
MCGREGOR       MOCLDY    46  45  93 S7        29.86F
$$
MNZ071>073-080-081-089-090-097-098-241300-
   Southwest Minnesota

CITY           SKY/WX    TMP DP  RH WIND       PRES   REMARKS
MONTEVIDEO     MOCLDY    46  45  93 S3        29.83S
GRANITE FALLS  MOCLDY    45  42  89 E3        29.85S
CANBY          PTCLDY    52  49  89 W5        29.83S
MARSHALL       MOCLDY    54  46  76 W5        29.81F
REDWOOD FALLS  MOCLDY    46  42  86 SE6       29.83F
OLIVIA         MOCLDY    46  43  87 SE5       29.84S
PIPESTONE      MOCLDY    48  46  93 SW3       29.84S FOG
WINDOM         MOCLDY    54  48  82 S9        29.84F
WORTHINGTON    PTCLDY    52  48  87 S10       29.87R
JACKSON        PTCLDY    52  46  82 S8        29.86F
TRACY          MOCLDY    53  50  87 SW10      29.82F
SLAYTON        MOCLDY    50  49  93 SW12      29.85S
$$
MNZ065>067-074>077-082>085-091>093-241300-
   South Central Minnesota

CITY           SKY/WX    TMP DP  RH WIND       PRES   REMARKS
MANKATO        PTCLDY    52  43  71 SE12      29.86F
NEW ULM        MOCLDY    46  45  93 S3        29.85S
ST JAMES       MOCLDY    54  46  76 S13       29.85F
FAIRMONT       PTCLDY    50  43  76 S9        29.86F
GLENCOE        PTCLDY    50  45  83 SE6       29.84F
FARIBAULT      FAIR      48  46  93 SE6       29.90F
OWATONNA       CLEAR     52  46  82 SE12      29.90F
WASECA         PTCLDY    48  43  81 SE8       29.91F
ALBERT LEA     PTCLDY    46  46 100 S9        29.92F
$$
MNZ078>079-086>088-094>096-241300-
   Southeast Minnesota

CITY           SKY/WX    TMP DP  RH WIND       PRES   REMARKS
ROCHESTER      FOG       45  44  97 S9        29.97S VSB 1/4
6HR MIN TEMP:  45; 6HR MAX TEMP:  46;

RED WING       MOCLDY    48  46  93 SE8       29.93F FOG
STANTON        PTCLDY    51  46  82 S9        29.89F
DODGE CENTER   PTCLDY    48  46  93 S10       29.94S
WINONA         CLOUDY    52  50  93 SE5       29.99S
AUSTIN         PTCLDY    45  45 100 SE6       29.94F FOG
PRESTON        FOG       46  46  97 S9        29.98F VSB 1/4
$$
ABBREVIATIONS USED IN REMARKS
   TC - TEMPERATURES IN CELSIUS
  WCI - WIND CHILL INDEX
   HX - HEAT INDEX
  VSB - VISIBILITY
$$



USA.gov is the U.S. government's official web portal to all federal, state and local government web resources and services.